Theta_e
296 297 295 295 294 294 296 295 295 296 302 300 299 299 301 299 295 293 298 305 306 309 312 313 312 312 313 314 316 318 319 319 319 319 318 318 319 320 321 322 323 325 327 329 331 333 336 340 342 343 344 345 345 346 347 347 348 347 347 347 346 346 346 348 349 347 344 343 344 348 352 352 351 350 350 350 350 350 350 349 349 349 349 349 350 353 354
295 297 297 296 294 295 296 297 296 298 301 304 304 304 304 302 298 298 305 307 306 309 310 312 312 314 315 316 318 319 318 318 319 318 318 318 318 319 320 321 323 325 326 328 330 332 333 336 339 342 343 343 345 345 345 346 347 347 347 346 345 345 346 347 346 345 344 344 343 343 344 345 347 349 348 349 350 350 350 349 349 349 348 348 349 350 351
296 296 299 299 295 295 296 297 298 300 300 304 305 306 306 307 305 306 306 305 305 310 313 312 314 315 316 317 317 316 317 317 318 318 318 318 318 319 320 322 324 326 327 328 329 330 331 333 335 337 339 342 342 343 344 344 345 346 346 345 346 346 346 347 347 344 343 343 344 342 342 343 344 345 348 349 350 350 350 350 350 352 350 345 346 347 349
293 295 295 296 296 297 297 297 296 299 299 301 303 300 305 301 301 303 304 303 303 309 312 313 314 314 314 313 312 312 313 314 314 314 315 316 317 318 320 322 323 324 326 328 328 329 330 332 333 334 335 335 337 338 340 341 342 344 345 344 344 344 345 346 346 344 345 345 344 344 343 343 343 345 348 349 350 350 350 350 351 351 350 347 346 345 345
290 297 297 295 296 295 292 294 295 299 298 303 304 305 306 305 306 304 302 302 308 310 313 311 311 312 311 311 311 311 311 312 312 313 314 315 317 318 319 320 322 324 327 327 327 327 327 329 331 333 334 333 333 334 335 337 340 340 341 341 341 341 343 345 344 344 345 345 345 345 345 345 345 347 348 348 348 344 346 350 351 350 350 349 347 346 344
288 293 296 298 292 286 289 299 301 304 301 303 302 301 302 305 305 303 304 306 310 311 311 310 310 310 310 310 311 313 312 310 310 310 311 313 315 315 316 319 321 320 324 325 325 326 325 326 329 330 331 330 329 331 331 331 331 333 334 335 336 337 339 340 343 344 345 346 345 345 346 346 346 346 345 343 345 346 348 346 345 351 352 350 349 350 350
286 291 294 291 283 286 298 301 303 307 308 307 304 304 305 305 307 308 308 309 310 311 312 312 311 310 310 310 310 310 310 310 309 309 310 310 312 313 315 316 317 319 321 321 321 322 323 325 324 322 321 323 324 324 325 325 326 326 327 328 330 332 333 334 336 338 340 342 343 344 344 345 344 343 343 343 342 342 343 344 346 350 352 352 352 352 351
286 286 287 283 284 295 302 301 302 304 303 303 307 304 305 306 306 305 304 306 308 310 310 310 310 309 309 309 310 309 310 310 310 309 309 310 311 312 314 315 316 318 318 319 320 321 324 321 321 321 321 322 322 323 324 324 325 325 325 325 327 328 328 330 333 335 336 337 338 340 340 341 341 341 341 343 344 345 344 343 345 349 350 349 348 348 349
283 284 285 287 294 295 298 297 298 297 293 293 296 298 302 305 307 305 304 306 307 308 308 308 308 309 309 306 306 309 309 309 309 310 310 311 311 312 313 314 315 318 320 320 321 321 320 320 321 321 321 321 321 321 322 322 323 323 323 323 324 324 325 327 329 329 331 332 334 335 337 335 335 338 339 341 343 346 344 345 347 348 347 347 348 347 348
283 282 283 284 287 285 290 298 303 305 302 301 300 303 301 307 309 309 306 305 306 307 307 308 308 309 306 302 304 309 309 309 309 310 311 311 312 313 315 317 317 318 319 321 323 321 321 321 320 320 319 319 319 319 320 321 321 321 322 322 323 323 323 325 327 328 328 328 329 330 330 335 336 335 336 339 341 344 345 346 346 347 348 348 348 349 351
282 281 279 280 279 286 292 296 300 304 303 300 304 298 294 303 308 311 307 306 306 306 307 307 309 306 301 301 304 307 309 308 309 309 309 310 312 314 316 317 316 317 319 321 321 321 320 319 320 320 319 318 318 318 319 319 320 320 321 321 322 322 323 323 325 326 328 328 328 328 328 329 331 335 337 336 338 340 341 340 340 345 347 346 347 347 350
284 279 279 282 284 289 297 299 301 302 301 301 297 288 288 301 308 310 308 307 307 307 308 308 308 305 301 302 305 308 308 308 309 309 309 310 311 312 313 315 317 318 320 318 317 317 317 317 319 319 319 320 321 318 318 319 318 319 319 320 320 321 321 322 323 325 326 328 327 327 326 328 331 332 333 333 337 340 338 337 338 340 346 343 343 346 349
287 288 280 282 287 296 299 301 301 301 303 296 288 283 290 301 308 309 308 308 308 308 308 309 305 307 307 308 308 308 308 308 308 309 310 311 312 312 314 316 319 314 314 314 314 315 316 317 318 319 318 317 318 319 317 317 318 318 319 320 319 320 321 321 322 323 324 325 325 325 326 326 327 327 328 330 331 334 338 340 339 338 341 342 342 344 345
282 281 281 281 283 290 296 300 301 302 297 287 285 292 298 302 308 309 309 308 308 308 308 305 305 307 308 310 308 307 307 307 307 309 310 311 313 316 319 319 316 313 313 313 313 314 315 317 318 317 317 317 317 316 316 316 317 319 318 318 318 319 319 321 321 321 322 323 324 324 325 324 323 323 324 325 327 330 335 337 338 338 339 340 341 342 341
282 278 279 278 280 293 300 300 298 301 293 289 292 298 303 305 308 309 308 308 307 306 304 305 305 306 307 307 307 307 307 307 308 309 310 311 311 311 311 313 316 313 311 311 312 312 313 314 316 317 317 316 316 315 314 315 318 319 318 316 317 318 319 319 321 320 320 321 321 322 323 323 321 320 322 323 324 325 326 327 328 328 330 336 340 340 338
280 280 280 281 286 290 296 298 294 296 299 299 297 302 304 305 308 308 307 307 307 305 303 304 305 305 305 306 307 308 308 308 308 309 309 310 310 310 312 312 313 314 310 311 311 311 312 313 314 315 315 315 315 313 312 316 317 318 317 316 316 317 319 318 318 320 319 319 319 319 321 322 322 320 321 322 322 323 323 324 324 324 326 327 328 333 337
286 286 284 287 289 294 297 299 298 298 301 303 301 303 304 306 306 305 308 307 306 305 305 305 305 304 306 306 308 307 307 307 307 308 309 309 310 310 311 312 314 312 310 310 310 310 311 312 312 312 313 313 314 311 312 318 317 317 317 317 315 315 315 316 318 318 318 317 318 318 318 320 320 320 320 322 320 320 321 321 321 321 323 324 324 325 323
292 293 294 296 297 298 300 300 301 301 302 302 302 304 305 304 303 306 308 306 307 307 307 305 306 306 306 306 306 306 306 306 308 310 309 309 310 310 310 310 311 310 310 310 309 309 309 311 312 313 311 311 312 311 313 316 316 317 316 316 315 314 315 316 316 317 317 316 316 317 317 317 320 320 318 319 321 320 319 319 320 320 321 321 321 321 321
287 286 291 297 298 299 300 301 301 302 302 301 302 301 301 304 304 306 308 307 307 308 309 308 307 306 306 305 306 306 306 307 307 308 308 308 309 309 308 311 312 309 309 309 309 309 308 309 310 311 310 311 312 313 313 313 316 317 316 315 315 313 313 315 317 317 318 317 315 315 316 316 316 318 319 318 318 320 319 317 317 318 318 319 318 317 317
290 291 294 298 299 300 301 300 300 300 301 301 302 302 303 303 304 307 307 307 306 307 308 307 306 305 306 306 306 305 306 306 307 307 307 307 308 309 310 310 310 309 308 308 308 308 308 307 309 310 309 310 311 311 312 313 316 317 317 315 312 312 313 315 318 317 316 320 317 314 315 316 315 316 317 318 318 318 318 316 315 315 316 316 315 314 314
292 293 296 297 298 299 300 302 302 302 301 300 302 302 302 302 303 304 305 307 306 306 306 306 306 305 306 307 306 306 305 305 305 306 307 308 308 307 307 308 310 307 308 309 309 309 307 307 307 308 308 309 311 312 313 314 316 316 315 315 314 313 314 315 316 317 315 314 315 314 314 315 316 317 316 316 317 317 319 321 317 314 315 315 316 314 315
289 292 294 295 294 293 297 301 302 303 303 302 302 302 302 302 301 302 303 303 305 304 305 306 306 305 305 306 306 305 305 305 305 305 306 306 306 306 307 308 308 310 310 308 308 308 307 307 308 308 308 309 310 312 313 313 315 316 316 313 312 312 314 315 314 313 313 313 313 314 313 313 315 316 317 309 311 316 315 319 312 306 307 313 314 314 314
289 294 293 294 295 294 296 300 304 303 303 303 303 303 302 302 302 301 302 302 302 304 305 307 306 305 306 305 306 305 305 305 306 306 306 305 305 305 306 306 307 307 307 310 309 309 307 310 309 309 309 309 310 311 311 312 312 313 313 314 312 312 315 314 313 313 312 312 313 312 312 313 314 314 314 315 304 303 306 310 305 300 299 299 301 306 315
295 297 296 297 299 300 303 302 302 303 303 303 304 304 304 304 303 302 302 303 303 303 304 306 307 307 306 306 306 306 305 305 305 305 306 306 306 306 306 307 307 308 308 308 307 308 306 308 308 308 309 308 309 310 311 311 311 311 312 312 311 311 313 313 314 313 311 312 312 312 312 312 314 314 313 312 314 307 303 303 303 300 298 298 297 299 301
300 300 299 298 299 301 301 301 304 304 307 306 303 305 308 305 304 305 302 301 302 303 304 305 306 307 307 307 307 306 305 305 306 306 308 308 306 306 305 307 307 308 308 306 306 305 306 306 307 308 307 308 309 309 310 310 311 311 310 312 310 310 313 312 311 312 311 311 311 311 311 312 313 314 313 312 311 313 314 305 302 301 301 300 300 299 300
300 300 301 301 301 300 300 302 303 304 304 305 305 306 307 314 312 307 303 302 302 304 304 304 305 306 307 307 306 306 305 305 308 310 305 305 306 306 305 307 308 307 306 305 304 304 305 307 306 307 308 308 308 308 309 309 309 309 308 308 308 313 313 310 309 309 308 308 309 310 311 312 313 313 313 313 313 313 313 313 314 310 305 303 302 301 302
301 301 302 301 298 299 300 301 301 303 302 303 304 304 305 304 309 308 306 306 305 304 305 305 305 306 308 308 308 306 305 306 309 308 304 305 306 306 306 307 307 307 306 304 304 306 309 310 309 307 307 307 308 310 308 308 308 307 307 307 306 311 312 311 309 308 308 308 308 309 311 311 311 312 313 314 314 314 313 312 312 312 313 315 309 304 308
300 300 300 299 296 297 300 302 301 301 301 301 302 303 303 304 305 306 305 304 304 305 305 305 305 305 306 306 307 306 308 307 307 306 304 305 306 306 306 306 306 306 306 306 307 311 311 308 307 306 305 306 307 307 307 307 307 308 308 305 306 306 306 307 307 307 308 308 309 308 309 311 312 313 313 314 313 313 312 313 312 312 312 313 314 310 306
299 300 300 300 300 299 299 300 301 301 300 300 302 300 303 304 301 303 303 304 304 305 304 305 306 307 306 306 305 305 306 306 306 305 305 306 306 305 305 305 305 307 307 309 309 309 306 305 305 304 305 305 306 307 306 306 306 306 307 306 305 305 306 307 307 308 308 308 308 310 311 311 312 312 313 313 313 311 311 310 311 311 311 312 313 313 313
299 299 299 299 299 300 301 299 298 298 299 299 300 301 301 303 302 301 300 301 301 303 304 304 305 305 306 305 305 306 306 306 307 307 306 306 304 304 304 305 306 306 307 306 304 304 304 304 304 303 304 305 305 305 305 305 305 305 304 305 305 306 307 308 309 308 307 308 310 310 311 311 312 312 311 309 308 308 308 308 309 309 309 310 310 310 311
299 299 298 297 297 297 297 297 296 297 297 298 299 300 300 301 301 300 301 300 301 302 303 304 305 305 306 305 306 306 307 306 306 306 305 304 303 304 305 306 305 305 305 303 303 303 304 303 303 304 304 305 305 305 304 304 304 303 304 304 304 307 307 306 306 307 307 308 309 309 309 308 307 307 307 307 307 307 307 308 309 308 309 308 309 310 311
297 295 296 295 296 294 295 295 295 296 296 297 297 299 299 300 301 301 302 303 303 303 303 303 303 305 306 307 306 306 306 306 305 304 303 302 303 304 305 306 306 308 304 302 303 304 303 303 303 304 303 304 305 305 304 303 302 302 303 306 304 304 305 305 305 305 306 306 307 307 307 306 306 306 306 306 306 307 307 308 307 307 308 308 308 310 312
296 295 295 294 297 293 294 294 296 297 296 296 297 298 298 299 299 302 303 304 304 304 303 303 304 305 305 305 305 305 305 305 304 303 302 302 302 303 303 304 304 303 303 304 303 303 303 302 302 303 303 304 304 304 303 303 302 302 302 303 303 304 305 303 303 304 304 305 305 306 306 305 306 306 306 307 307 308 308 307 307 307 308 308 308 310 310
296 295 296 295 296 296 295 296 296 296 297 297 297 297 298 300 301 301 302 303 303 303 303 305 305 305 304 303 303 304 304 303 302 302 302 302 303 303 304 305 303 303 302 302 301 301 302 302 302 302 302 302 303 303 302 302 302 302 302 303 303 303 302 302 303 303 303 303 304 305 304 306 306 306 307 308 308 307 306 307 307 307 307 307 307 308 306
298 297 297 297 297 298 298 297 297 297 298 299 299 299 299 299 299 300 304 304 302 304 305 305 304 304 304 302 302 303 303 303 303 303 302 302 301 301 302 302 301 301 301 301 301 301 302 302 302 301 300 300 300 301 303 303 302 302 302 303 303 302 301 302 302 303 303 303 304 304 305 306 306 307 307 307 306 306 305 306 305 305 305 304 305 306 306
300 299 299 298 299 299 300 300 300 300 299 298 298 299 299 299 300 300 302 304 305 305 304 304 303 303 303 302 302 302 302 302 303 302 302 302 302 302 302 301 301 300 300 300 301 301 301 303 307 305 303 302 300 299 303 305 302 302 304 302 302 301 301 302 302 303 305 305 305 305 305 306 305 305 305 304 304 304 304 304 304 304 304 304 304 304 304
300 299 299 299 299 298 299 300 300 300 300 299 299 299 300 300 302 302 304 303 303 304 304 303 302 302 302 303 303 303 302 302 302 301 301 301 302 301 301 301 301 300 301 299 300 302 304 306 307 306 304 303 301 300 305 305 303 302 302 301 301 300 300 301 302 304 305 305 304 304 304 303 302 301 302 302 301 302 302 302 303 303 303 303 302 301 302
298 298 298 298 298 298 298 299 300 300 300 300 301 304 304 302 302 302 303 303 304 304 304 303 303 303 303 303 302 301 301 301 301 301 301 301 302 301 301 301 301 301 299 299 301 303 305 306 305 302 300 300 299 300 303 304 303 301 300 300 300 300 301 301 301 302 302 302 303 301 300 300 299 299 299 299 300 301 301 301 301 300 300 300 299 299 300
297 298 298 298 298 298 298 299 299 299 299 298 298 298 301 304 304 303 302 303 304 305 304 302 302 302 302 301 300 300 300 301 301 300 301 301 302 301 301 301 302 302 302 302 303 303 304 303 301 300 300 299 299 298 302 303 302 300 300 300 300 300 300 301 301 301 302 301 300 300 298 298 298 298 298 298 299 300 300 299 298 298 297 297 297 298 299
296 297 297 298 297 298 298 298 298 298 298 299 298 298 300 302 301 302 302 302 303 306 304 302 301 301 301 301 300 300 300 301 301 301 301 302 303 301 301 301 302 303 304 306 304 303 304 303 300 298 299 298 299 300 301 301 300 300 299 299 299 299 299 301 300 300 299 298 298 299 297 297 297 297 298 298 298 298 297 296 295 296 296 296 296 297 297
296 296 297 297 297 298 297 297 297 298 298 298 298 299 300 300 300 300 300 302 302 304 304 302 302 302 302 301 300 300 301 302 302 302 303 302 301 300 299 298 301 303 304 303 304 303 303 301 301 299 300 300 300 301 300 299 299 298 299 299 298 298 298 299 299 298 297 296 297 295 295 295 295 295 296 295 295 295 294 294 294 294 294 294 295 295 295
296 297 297 297 297 296 297 296 297 296 297 297 299 300 300 300 300 300 301 302 302 302 303 303 305 303 302 302 302 302 301 301 302 302 302 301 300 300 298 298 302 303 306 305 304 303 302 302 302 302 299 301 302 301 300 299 297 297 297 297 298 298 297 297 297 296 296 296 295 294 295 295 294 294 294 294 293 293 293 293 293 293 293 294 294 293 293
297 297 297 297 297 297 297 297 297 296 297 298 298 299 299 300 300 301 302 302 302 302 302 302 305 305 303 301 301 300 300 301 301 301 301 302 302 302 300 300 302 304 306 304 301 299 299 300 300 301 302 300 300 299 299 296 296 296 296 296 297 297 296 296 295 295 294 294 293 294 293 294 293 293 293 292 291 292 292 292 291 292 293 293 292 293 293
297 297 297 297 298 299 299 299 298 297 297 297 299 299 300 300 302 302 302 302 302 303 302 302 303 302 301 301 300 299 300 300 300 300 299 298 299 300 301 301 303 305 304 302 301 299 300 300 299 300 301 301 300 299 297 296 296 295 295 295 296 295 295 294 294 294 293 293 293 293 293 294 292 292 291 291 291 291 292 292 292 292 292 292 292 292 292
296 297 297 298 299 300 299 299 298 298 298 299 299 299 299 300 301 303 304 303 303 303 304 303 302 302 301 301 301 300 300 301 300 300 298 297 296 297 301 305 305 304 303 302 301 300 299 300 301 301 300 300 299 298 298 296 296 296 295 294 294 294 294 294 293 293 294 293 293 293 293 292 292 292 290 291 292 291 291 291 292 292 291 291 291 291 291
297 297 298 300 298 297 298 298 299 299 298 298 297 299 301 301 301 302 303 304 304 304 303 302 302 301 301 300 300 300 301 301 301 301 301 299 298 298 303 305 304 303 303 302 301 299 299 302 301 300 300 299 299 299 297 298 297 296 296 295 295 295 294 293 293 293 293 293 294 292 292 292 292 291 291 291 290 291 292 293 292 291 291 291 291 291 291
296 297 297 297 298 299 300 300 301 301 300 297 296 297 300 302 302 303 304 304 302 301 301 301 300 300 301 300 300 299 298 298 299 300 300 301 303 303 306 306 305 304 303 301 300 299 300 301 300 300 300 299 298 295 295 295 295 295 295 295 295 295 294 294 294 294 294 294 294 293 293 293 292 292 292 291 291 292 292 292 291 291 292 293 292 292 292
297 297 297 298 299 300 300 300 301 300 299 298 299 301 302 302 303 303 303 302 301 301 301 301 301 301 301 301 301 302 301 299 296 296 300 301 301 303 304 303 304 305 303 302 301 301 302 301 300 300 300 299 297 293 295 295 295 295 294 295 293 292 294 294 294 294 294 294 293 292 292 292 292 292 292 292 291 292 292 293 292 292 292 292 291 291 291
296 297 298 300 300 300 300 301 301 301 301 301 301 301 301 301 301 302 301 301 300 300 300 300 300 301 301 303 302 301 302 303 300 298 299 301 302 302 303 305 306 305 303 301 300 301 302 301 301 300 300 298 293 293 293 295 297 296 296 295 294 295 295 294 294 294 294 294 293 293 293 292 292 292 292 292 292 292 293 293 292 293 293 292 292 292 292
298 299 299 300 301 299 299 300 300 301 302 301 300 301 301 301 299 299 301 300 300 301 299 299 299 300 300 300 301 301 301 302 302 301 301 301 301 302 304 305 305 305 303 300 300 301 302 302 301 301 300 296 294 295 294 295 296 297 296 296 296 295 295 296 295 295 295 294 293 293 293 293 293 293 293 293 293 293 293 293 293 293 293 293 292 292 292
297 298 300 302 301 301 300 301 301 302 302 302 302 303 302 301 300 301 300 300 299 299 298 299 299 299 299 299 299 300 300 301 302 304 301 302 302 304 304 305 305 305 303 302 301 299 300 300 299 300 299 296 295 296 296 296 296 297 297 296 296 296 295 296 296 295 294 294 294 294 294 294 294 293 293 293 294 293 293 294 293 293 292 292 292 292 292
296 298 300 301 299 299 299 300 301 301 301 302 301 302 301 301 300 299 300 301 299 298 298 298 297 298 299 299 300 299 299 301 304 303 304 303 303 303 305 306 305 304 303 300 298 298 298 299 301 301 299 296 294 296 298 298 297 297 297 297 297 296 296 296 296 296 296 295 295 295 295 295 295 294 294 294 294 294 294 293 293 293 293 292 292 292 292
Wind_Speed
9 7 5 5 5 0 1 4 7 11 8 3 2 0 0 3 7 7 6 11 10 8 10 11 8 9 8 7 7 7 7 6 6 5 6 5 5 5 5 5 5 6 6 6 6 5 3 2 5 5 5 5 5 4 4 6 7 8 9 8 7 7 4 1 2 5 7 6 6 8 7 4 5 5 5 6 5 5 6 6 5 6 6 6 6 6 6
3 8 11 8 8 5 2 8 9 9 7 7 6 4 3 2 0 2 10 9 4 4 8 9 8 7 8 7 6 6 7 7 7 6 5 5 5 5 6 5 5 5 6 6 6 6 6 5 3 4 5 5 5 6 6 6 6 6 7 6 5 6 6 6 6 5 6 7 5 3 2 6 8 6 5 5 5 5 5 5 6 6 5 5 6 7 7
2 1 3 9 7 6 5 7 12 13 9 5 6 4 4 8 10 9 10 9 6 3 9 10 9 9 7 8 9 8 6 7 7 7 7 6 5 6 5 4 6 6 6 6 7 7 7 7 8 6 4 3 4 6 6 6 5 3 3 4 3 1 3 5 6 6 5 5 6 6 5 5 4 4 9 5 3 4 4 3 3 4 4 6 6 6 7
0 4 7 7 10 10 2 11 15 15 12 8 5 4 3 1 6 6 7 7 5 6 10 11 11 10 10 10 9 7 6 6 6 7 6 6 6 6 6 6 6 6 7 7 8 8 8 9 9 8 9 9 8 7 5 5 5 5 6 5 5 5 5 6 7 8 7 6 6 5 4 5 5 4 2 5 7 5 3 2 3 1 3 5 5 5 4
3 3 3 9 9 10 8 9 8 8 5 0 1 3 8 5 1 7 8 6 4 10 11 13 10 10 9 9 9 8 6 5 6 6 7 6 7 7 6 7 7 6 6 7 7 8 9 9 10 10 9 10 10 9 9 8 7 6 5 5 6 6 4 4 5 7 7 7 7 6 7 6 3 2 1 5 6 7 8 10 9 6 4 2 1 2 4
3 1 3 5 4 3 2 3 2 2 4 2 6 3 4 6 2 2 1 2 8 10 11 13 11 12 11 9 5 3 9 8 6 6 5 6 6 7 7 7 8 5 5 6 7 8 8 9 10 10 10 10 9 10 10 10 10 8 9 8 7 6 6 6 6 5 4 5 6 7 6 6 6 7 7 8 8 5 2 4 5 5 3 1 0 1 2
4 0 1 5 0 8 6 4 1 2 4 8 9 5 8 8 8 4 11 11 10 9 10 11 10 7 6 5 7 5 3 6 7 7 6 6 6 6 6 6 6 6 6 6 7 8 9 8 9 11 11 10 10 11 11 12 10 9 9 8 8 7 8 8 8 7 7 7 7 8 7 6 6 6 5 6 6 5 4 6 8 6 4 2 1 2 2
2 3 1 5 8 6 2 4 3 2 3 0 1 3 7 8 5 3 7 6 8 10 10 8 8 10 9 8 5 5 4 4 8 9 7 5 6 7 5 6 6 5 5 6 7 7 6 8 9 9 9 9 11 10 11 11 10 9 9 9 10 9 10 9 8 7 7 7 6 6 7 7 8 8 7 6 6 6 6 6 5 1 3 3 3 3 3
4 3 3 1 3 2 1 2 3 3 2 4 2 1 3 3 3 2 8 9 8 9 8 9 9 8 9 8 5 4 3 5 4 7 7 7 6 5 5 6 7 6 6 6 7 8 8 8 8 8 8 9 10 9 10 10 11 10 11 11 10 10 10 9 9 8 7 7 7 6 6 8 7 7 7 6 4 3 4 3 0 0 2 3 2 1 2
3 5 3 2 1 4 3 1 2 1 1 1 3 2 2 2 3 2 7 11 11 10 9 9 9 9 11 7 2 0 2 5 9 7 7 7 7 8 8 7 7 7 6 7 7 8 10 9 7 7 8 9 10 11 10 9 10 11 11 10 8 9 8 8 8 7 7 8 8 7 7 7 6 6 6 4 3 2 2 2 1 2 2 3 3 2 3
2 3 4 2 3 1 2 4 4 1 1 2 2 3 2 1 2 2 9 12 10 12 13 11 9 8 6 6 5 4 3 5 7 9 6 8 7 6 7 8 7 7 7 8 8 9 10 10 7 8 8 10 11 10 8 8 8 8 8 6 6 7 7 7 7 7 7 8 7 7 8 7 6 4 3 4 3 3 4 3 3 4 5 4 4 5 4
1 4 3 0 2 2 0 3 5 3 1 3 2 2 4 4 5 7 8 14 14 12 12 11 8 9 9 9 8 5 5 5 3 8 10 9 8 8 8 7 7 7 6 9 10 10 9 7 5 7 8 10 10 9 8 8 8 7 6 5 5 5 6 7 6 6 5 6 6 6 6 6 5 4 3 3 2 3 4 4 4 5 4 4 3 3 3
1 4 0 1 2 2 3 4 7 7 1 2 3 4 3 3 6 5 3 8 13 13 12 10 9 4 2 6 9 8 6 7 6 5 6 8 9 9 8 7 7 9 8 9 8 8 6 6 6 6 8 9 9 8 8 9 8 6 4 5 6 7 7 7 7 7 7 7 8 8 7 6 5 5 5 4 3 4 2 3 3 2 3 2 1 1 1
2 0 2 2 3 4 3 6 6 4 0 1 2 3 1 4 7 3 3 4 3 4 5 3 3 1 4 13 10 9 7 7 6 6 8 9 8 6 6 8 9 9 8 9 9 9 7 7 6 6 8 10 7 7 8 8 6 4 5 6 6 8 8 8 7 8 8 8 7 6 6 4 5 6 5 5 5 5 5 4 3 0 1 3 1 1 2
1 4 3 2 2 1 1 9 4 2 2 3 2 1 2 1 3 5 1 3 3 6 3 3 5 6 9 12 12 9 8 8 8 7 8 10 9 8 8 7 6 9 9 9 9 7 5 6 6 6 9 9 7 7 9 6 4 5 5 6 7 7 8 8 8 7 7 8 7 6 6 6 7 6 6 7 8 8 7 7 7 5 5 1 5 5 5
1 1 0 0 2 3 2 2 1 3 1 2 3 4 1 1 4 5 3 2 3 6 8 7 7 9 11 8 9 9 7 7 6 5 5 6 7 8 6 7 7 10 10 8 8 7 6 6 6 6 8 9 8 9 8 4 5 5 7 7 7 7 7 7 7 7 7 7 7 7 6 6 7 7 7 6 7 6 6 5 5 5 4 4 5 5 5
1 1 1 2 3 4 4 1 2 2 5 3 4 3 2 5 3 2 5 5 5 8 9 9 11 8 10 14 13 14 10 8 8 8 6 6 8 8 8 7 6 8 10 9 8 8 7 8 7 7 7 9 8 8 4 4 6 6 7 7 7 7 7 7 6 6 7 7 7 7 6 6 7 6 6 6 7 6 6 6 5 5 5 5 6 6 6
2 1 3 4 3 3 6 3 2 2 3 4 2 1 2 0 3 4 7 7 7 8 8 10 2 5 7 10 8 8 8 8 6 6 7 6 6 8 8 7 7 8 8 9 9 9 8 7 6 6 7 7 8 4 3 4 5 6 7 7 7 7 6 6 7 6 6 7 7 7 7 6 6 5 5 5 5 5 5 6 5 5 5 5 5 6 6
2 1 3 4 2 3 4 5 4 0 2 3 3 3 3 1 3 4 3 8 9 10 9 13 13 8 6 7 7 7 7 7 8 8 8 7 7 9 9 6 7 7 8 8 8 8 7 5 6 6 7 7 5 4 5 5 5 7 7 6 7 6 7 6 7 7 7 6 6 6 7 6 5 5 5 5 5 6 5 5 5 5 6 5 5 5 5
1 1 1 1 1 1 1 2 4 4 6 6 4 2 2 2 2 2 3 4 4 5 7 8 11 9 7 10 9 8 7 8 7 7 7 8 6 5 7 7 7 7 8 8 7 7 6 4 4 5 6 6 5 5 5 4 5 6 7 6 7 7 7 5 5 6 6 10 8 5 6 5 6 6 5 5 5 5 5 5 5 5 5 5 5 4 4
2 2 2 2 2 1 4 4 3 2 3 2 4 5 6 5 3 2 3 1 4 4 5 5 9 10 9 9 10 10 8 8 7 6 6 7 7 7 7 5 6 8 7 7 6 6 5 3 5 6 6 5 5 6 5 5 6 7 6 7 6 7 6 6 6 6 5 5 5 5 5 5 5 4 4 4 5 5 4 3 4 4 3 3 3 2 2
1 1 1 2 2 1 1 1 2 3 3 1 4 4 6 5 4 2 3 3 3 3 5 9 9 12 9 7 8 9 8 8 8 7 7 7 7 6 5 6 7 7 6 8 6 6 4 3 5 6 6 5 5 5 5 5 6 6 5 5 6 6 5 5 5 5 5 5 4 4 4 4 4 4 7 4 3 3 4 7 5 2 2 3 2 2 2
1 3 5 3 2 2 3 2 1 2 2 2 6 4 2 3 4 3 3 4 4 5 3 3 8 9 11 10 8 8 8 8 8 10 11 10 8 7 6 8 7 7 6 6 6 5 4 4 6 5 5 5 5 5 5 5 6 6 6 5 5 4 5 5 5 5 4 4 4 3 3 3 3 4 4 5 7 6 5 6 7 9 5 3 1 1 1
3 3 3 4 1 0 1 2 2 2 2 2 3 2 1 0 1 5 3 0 2 4 6 5 6 9 9 10 11 12 9 8 9 9 8 9 9 8 7 9 9 8 7 6 7 6 4 5 5 5 5 4 5 4 5 5 6 6 6 5 5 4 3 4 5 4 3 3 3 3 3 3 3 3 3 4 5 7 8 7 9 8 7 8 8 7 3
0 1 1 3 0 1 1 1 1 2 3 0 2 3 4 3 2 1 4 4 4 4 5 8 6 6 11 11 11 12 12 11 11 11 10 8 8 9 9 9 10 9 8 7 6 6 6 6 6 6 6 4 3 4 4 5 6 6 5 5 4 4 3 4 4 5 4 4 3 3 3 3 3 3 3 3 3 5 7 7 7 5 7 8 9 9 10
2 1 2 2 1 2 2 0 2 3 4 4 3 3 3 5 3 2 1 3 4 6 5 3 3 4 4 9 9 7 7 11 11 9 8 8 7 7 9 11 10 8 8 7 6 6 6 7 7 6 6 4 3 4 4 4 5 6 5 4 4 3 3 4 3 3 3 2 3 3 3 2 2 3 3 3 3 3 4 5 6 5 4 7 8 10 11
3 1 0 2 3 3 3 2 1 3 2 1 1 2 3 3 4 2 1 1 0 2 5 7 5 2 2 3 3 7 13 10 7 8 8 10 11 11 10 8 9 9 9 8 7 7 9 7 6 6 6 3 2 3 4 5 6 6 5 4 4 5 7 4 3 2 2 2 2 2 3 3 3 3 4 4 3 3 4 4 4 4 5 5 6 8 7
3 4 2 0 1 0 1 1 2 4 3 3 3 2 2 2 3 2 4 4 4 3 1 1 5 6 5 5 5 4 2 7 11 10 9 11 10 8 8 9 10 9 8 7 7 7 7 8 7 7 5 3 3 3 4 5 5 5 4 4 3 3 2 3 3 2 2 2 2 2 2 3 3 4 4 3 3 3 4 4 3 4 4 4 4 5 9
4 4 3 1 1 2 2 2 1 3 4 4 2 1 2 2 2 1 1 3 2 3 4 2 2 4 7 7 5 5 6 7 9 10 12 10 7 8 8 9 9 8 7 7 7 7 7 7 7 7 5 3 3 3 3 4 5 4 3 3 3 2 2 2 1 1 1 2 2 2 3 3 2 2 3 3 3 3 4 4 4 4 4 4 3 5 5
3 3 3 2 1 0 0 2 3 4 5 5 5 4 3 1 3 4 3 2 2 1 3 2 2 2 3 5 6 8 9 10 11 9 8 7 7 8 8 8 8 6 6 7 8 7 8 7 7 7 5 3 3 3 3 4 4 3 3 3 2 2 2 2 2 3 2 2 3 4 3 3 3 3 3 3 4 4 4 4 5 4 4 5 5 5 6
2 2 2 3 4 5 5 1 1 2 3 4 3 3 4 2 1 3 5 3 1 2 4 2 2 2 2 5 6 7 7 6 4 3 3 4 6 8 9 11 12 10 10 9 8 8 8 7 7 6 4 3 3 3 4 4 3 3 3 3 3 4 6 7 4 3 3 3 3 3 3 3 4 4 3 3 3 3 3 3 4 4 4 5 5 5 5
1 3 4 4 3 3 2 1 2 2 2 2 3 3 2 2 4 5 5 4 5 3 3 3 3 6 6 5 4 5 7 8 7 5 5 5 5 7 8 9 8 7 8 9 8 7 8 8 7 6 4 4 4 4 4 4 3 4 3 3 3 2 3 6 3 4 3 3 3 3 3 3 3 3 3 3 3 3 4 3 4 4 4 4 5 5 5
1 2 2 2 3 2 2 1 1 3 3 2 2 2 3 2 3 4 5 5 4 4 3 5 5 5 5 3 4 5 5 5 5 7 8 7 6 5 5 4 6 8 8 7 7 8 8 8 7 5 5 5 5 4 4 4 4 3 2 2 1 2 3 3 4 3 3 3 3 3 3 3 3 3 4 4 3 4 3 3 4 4 4 4 4 5 6
1 2 3 3 2 2 3 5 3 3 4 3 3 3 4 3 3 3 4 4 4 5 5 6 6 4 3 3 4 4 5 6 5 6 8 8 8 6 5 6 8 8 8 8 8 7 6 7 7 6 5 6 5 4 3 3 3 3 3 2 1 1 2 3 4 3 3 3 3 4 4 4 4 4 4 4 3 3 4 4 5 5 4 4 4 5 7
2 3 2 3 3 4 4 5 5 5 4 5 5 3 4 4 3 4 5 4 5 7 6 4 4 3 4 4 5 6 7 9 9 8 8 9 9 8 8 8 7 7 8 6 7 7 7 7 7 7 6 5 5 3 2 2 3 3 3 2 1 1 2 3 3 3 3 3 3 3 3 3 3 3 4 4 4 4 4 4 5 5 5 5 5 6 6
2 3 3 4 4 5 5 6 6 6 5 5 5 5 5 5 5 4 4 5 5 5 5 5 4 3 4 5 6 7 8 6 5 7 9 8 9 9 10 10 10 9 8 7 4 6 7 7 10 9 6 5 4 2 1 1 4 4 3 1 0 2 2 2 3 4 3 3 2 2 2 5 6 5 5 4 4 5 4 5 5 5 5 5 5 6 6
2 4 4 5 5 4 5 6 6 6 6 7 6 6 6 6 6 7 5 5 5 5 6 4 2 4 7 7 6 4 5 5 7 7 7 7 7 8 9 10 9 9 7 7 4 4 7 6 10 10 6 3 3 1 3 3 5 3 2 0 0 2 2 2 3 3 1 2 3 3 4 4 4 4 5 5 5 5 5 5 5 5 5 5 6 7 7
4 3 4 5 6 6 6 7 6 6 6 5 5 6 6 6 6 6 6 6 5 6 5 5 6 6 4 4 5 6 6 6 8 8 9 9 9 10 8 8 7 7 6 6 5 6 6 8 11 6 4 3 2 0 3 5 7 3 2 2 2 2 2 1 1 2 2 3 3 4 4 4 4 4 4 4 4 4 4 4 5 5 5 6 6 7 6
6 5 4 5 5 6 7 7 6 5 6 8 7 6 6 6 6 5 6 7 7 4 4 6 4 5 6 7 6 6 7 8 9 10 10 10 9 10 9 8 7 6 6 6 7 7 7 7 4 4 4 3 2 2 2 4 5 3 2 2 2 2 1 1 1 2 2 3 3 3 4 4 4 4 4 4 4 4 5 6 6 5 5 5 5 6 6
5 5 6 6 7 6 6 6 6 7 6 6 6 6 6 6 6 6 6 7 7 5 6 6 6 6 7 7 8 8 8 9 9 10 10 9 9 9 8 6 6 6 7 9 7 6 9 11 6 4 3 2 2 2 4 5 4 2 2 2 1 1 1 1 2 2 3 4 4 4 4 4 4 4 4 4 4 5 5 5 5 5 5 5 5 5 6
5 5 6 5 7 6 6 6 7 7 6 6 6 6 6 6 6 6 7 8 9 6 6 7 8 7 9 10 10 9 9 8 9 10 10 9 9 8 8 7 5 7 7 6 6 7 8 6 4 4 2 3 4 5 4 5 3 3 2 1 1 1 2 2 2 4 4 4 4 3 3 3 4 4 4 4 4 4 4 4 5 5 5 5 5 5 6
6 5 6 6 6 6 6 6 5 6 6 7 7 7 8 7 7 8 8 8 7 6 7 8 10 10 8 8 8 8 9 9 9 9 9 10 10 8 7 6 6 6 11 12 10 8 6 6 5 4 4 3 4 6 6 4 3 3 3 2 2 3 3 3 3 3 3 3 3 3 3 3 3 4 4 4 4 4 4 4 5 5 5 5 5 6 6
5 6 7 7 7 7 6 6 6 7 7 7 7 7 8 7 6 7 8 8 7 6 7 7 7 6 7 8 10 10 10 9 10 9 7 4 4 6 10 8 6 8 14 8 7 5 5 4 5 4 7 7 5 7 8 4 3 3 3 2 3 3 3 3 2 2 2 2 2 2 2 3 3 3 4 4 4 4 4 5 5 5 5 5 6 6 6
5 5 5 6 8 9 9 7 7 6 7 8 7 7 7 7 6 6 7 7 6 7 7 8 8 9 10 10 10 10 9 9 9 8 8 7 6 5 5 8 6 10 14 6 5 5 5 4 3 4 8 9 8 8 5 3 3 3 3 3 3 3 3 3 3 2 2 2 2 2 3 3 3 3 4 4 4 4 4 5 5 5 5 6 6 6 6
5 5 6 7 8 8 8 7 8 8 7 6 6 6 6 6 6 6 6 7 7 7 8 9 9 10 9 10 9 8 7 7 8 8 8 7 7 5 4 8 9 8 9 9 5 5 4 4 5 8 8 9 8 8 4 3 3 3 4 4 4 3 3 3 3 3 2 2 2 3 3 3 3 3 4 4 5 5 5 5 5 5 5 6 6 6 6
5 6 6 7 8 8 8 9 9 7 5 5 5 6 5 5 5 5 4 5 6 6 7 7 8 9 9 9 9 9 8 7 6 5 5 8 9 8 7 8 6 7 12 12 5 5 4 8 8 9 9 10 9 5 3 3 3 3 3 3 4 3 3 3 2 2 2 2 2 2 3 2 2 3 4 3 4 4 4 5 5 5 5 5 5 6 6
5 5 5 5 7 8 9 7 6 6 4 4 5 5 5 4 4 4 4 4 6 8 10 10 10 10 9 9 8 8 8 7 4 3 4 4 6 8 10 12 11 14 11 6 5 5 4 5 7 8 9 9 8 4 4 4 4 4 3 3 3 3 3 2 2 1 0 0 1 2 2 2 1 0 2 4 4 4 4 5 5 5 5 6 6 6 6
4 5 6 6 7 7 7 5 4 4 4 5 4 4 2 2 3 4 6 8 6 7 11 10 10 10 9 8 6 5 6 8 8 2 1 4 6 7 7 6 8 12 11 9 9 6 10 9 9 9 9 7 5 4 4 3 3 3 3 3 3 2 1 1 1 2 1 1 1 0 1 1 2 2 2 3 3 4 4 4 4 5 5 5 6 6 6
3 4 4 5 5 6 6 7 6 5 3 2 4 4 5 7 7 7 8 9 9 7 8 8 8 8 8 8 7 6 4 3 4 5 4 5 7 6 6 9 14 14 8 5 6 5 9 10 10 10 9 7 4 3 3 3 3 3 3 3 3 3 3 2 2 2 2 2 1 1 1 2 2 2 2 2 3 3 4 4 4 4 5 6 5 5 5
2 3 5 5 5 6 6 6 6 5 4 4 5 4 4 6 8 6 7 9 9 8 7 6 5 6 7 7 6 6 5 4 3 5 6 6 6 6 7 7 7 11 10 6 6 5 8 12 11 10 6 5 4 4 3 4 4 3 3 4 4 3 3 3 3 3 3 2 2 2 2 2 2 3 3 3 3 4 4 4 5 6 8 6 6 6 6
3 4 3 4 4 4 5 6 5 5 5 5 5 5 6 7 6 7 7 8 8 8 6 5 4 4 4 4 4 4 4 4 5 7 6 6 5 6 7 6 7 7 7 7 5 6 5 5 5 5 6 5 5 5 4 4 4 4 4 3 3 3 3 3 3 3 3 3 4 4 4 3 3 4 4 4 4 4 4 5 5 6 6 6 6 6 7
3 2 2 3 4 4 5 6 6 6 5 5 5 5 5 6 7 7 8 9 7 5 4 4 4 3 4 4 4 4 4 5 5 5 5 6 5 5 6 7 5 6 6 5 6 5 5 5 5 6 6 5 5 5 5 7 5 4 4 4 4 4 4 4 4 4 4 5 4 3 4 3 4 5 5 4 4 3 3 3 4 5 6 7 7 7 7
Wind_Direction
342 16 3 8 25 68 109 23 10 1 340 49 104 148 168 125 138 193 200 173 177 161 162 160 147 146 145 142 134 123 123 115 112 105 89 69 66 65 59 51 39 39 37 28 27 27 29 57 174 159 146 161 164 140 132 143 150 167 171 172 166 159 157 155 34 64 71 57 22 349 331 277 229 225 224 217 213 209 205 210 214 210 202 195 198 210 219
74 4 338 5 37 341 2 27 11 3 11 43 68 72 24 79 144 208 140 133 89 137 142 144 141 131 125 114 106 119 125 124 118 110 104 94 80 69 64 48 37 32 32 34 26 32 29 39 57 131 144 153 159 139 137 141 157 179 185 194 177 175 170 148 127 129 134 140 171 161 75 337 328 299 226 210 202 204 211 220 218 214 206 200 196 200 206
179 174 330 345 7 18 358 3 12 12 1 44 56 78 58 61 53 78 109 109 103 94 128 119 117 114 111 120 129 129 124 132 134 127 120 112 95 84 77 61 54 45 38 32 34 36 37 36 47 48 42 64 69 92 119 136 131 91 46 48 56 119 163 149 146 147 158 178 156 178 182 181 173 311 318 303 216 187 195 206 218 218 200 201 203 202 202
281 337 22 356 350 347 40 12 6 1 356 14 353 33 332 102 141 104 91 111 154 151 121 121 123 129 133 135 135 135 140 137 132 125 120 112 98 88 84 75 65 53 46 45 41 38 35 40 42 44 51 54 63 63 57 51 77 108 135 148 148 151 166 167 160 154 156 155 155 151 163 217 223 181 193 321 323 336 337 292 253 216 213 221 219 214 210
215 297 34 42 14 2 7 1 349 330 294 328 17 37 26 39 130 136 156 212 145 139 131 123 132 131 137 142 149 142 139 140 132 124 112 105 100 92 83 77 70 57 56 56 50 41 43 39 49 52 55 58 52 45 44 37 53 69 67 95 107 100 97 120 157 163 162 155 146 150 161 173 206 254 124 75 39 33 4 9 350 344 345 349 299 233 218
209 280 342 62 56 46 278 260 5 2 325 0 73 33 357 349 33 223 197 130 112 124 126 128 138 148 158 154 156 151 144 137 118 97 100 101 95 91 86 87 84 66 62 64 59 57 57 57 56 58 54 57 54 52 53 50 41 39 59 53 44 51 51 46 60 78 92 107 122 126 126 123 125 120 104 100 99 113 172 61 341 339 320 327 291 193 213
175 240 16 77 256 222 237 298 358 113 73 84 91 81 42 17 11 65 101 106 117 121 125 136 138 126 107 100 116 98 81 118 119 118 104 101 101 94 93 86 82 81 71 66 70 64 55 55 61 68 62 55 56 55 55 59 50 47 41 41 45 41 53 51 49 48 65 81 99 109 108 103 97 93 108 119 120 145 174 172 187 198 198 178 101 99 89
58 61 77 143 229 236 280 291 320 291 129 48 280 53 36 20 15 10 82 89 110 122 123 119 131 129 119 94 71 93 97 118 131 123 120 113 105 104 104 106 92 88 79 71 73 69 65 70 70 69 68 62 61 59 53 54 50 47 49 47 40 37 36 34 43 50 54 56 62 69 77 86 92 90 89 105 126 150 171 209 229 245 156 119 124 128 144
154 173 136 188 302 12 4 19 18 32 350 324 31 14 357 342 358 43 118 108 109 110 117 125 124 122 105 90 48 10 93 99 83 112 113 110 95 84 72 86 91 86 81 81 79 77 70 70 70 67 69 65 64 59 54 52 55 46 44 41 36 36 39 32 35 36 46 61 58 54 69 76 72 76 87 92 116 171 191 213 353 20 42 73 92 88 28
113 127 76 23 113 180 272 245 288 272 187 227 218 120 349 347 45 85 124 123 129 124 128 131 131 121 100 96 108 334 71 105 106 91 100 100 101 99 95 80 73 69 71 74 70 82 81 68 62 70 71 73 69 62 59 57 54 50 49 49 37 39 36 26 28 38 39 46 53 53 51 50 74 92 94 96 74 51 61 56 96 76 17 29 21 44 57
43 50 113 178 147 247 211 266 273 292 298 221 167 61 329 266 183 157 144 133 141 145 144 147 141 118 125 172 196 215 154 127 124 114 102 102 99 96 95 100 90 74 70 73 73 68 67 62 51 64 72 75 72 66 61 57 55 52 48 44 36 36 39 36 30 29 33 35 41 43 51 48 38 36 64 86 99 73 77 63 40 25 41 21 14 14 31
100 136 89 117 206 97 353 259 289 280 126 155 70 39 286 215 199 180 168 148 154 158 155 155 153 145 141 180 192 189 160 130 116 127 127 114 103 87 81 65 70 73 71 76 62 60 60 57 56 67 69 71 70 72 66 64 59 52 39 29 21 37 43 45 48 48 41 43 35 35 48 52 44 38 21 47 39 87 72 46 32 26 42 43 15 37 3
35 83 267 330 321 281 282 270 302 318 177 96 95 178 243 209 180 187 203 166 157 152 158 168 165 224 196 140 136 135 123 108 96 88 101 113 117 119 107 97 90 77 66 70 70 61 49 45 46 56 73 71 66 66 65 60 51 40 23 30 43 45 45 46 45 45 47 50 53 46 36 47 48 34 23 25 39 66 86 95 83 32 51 74 289 38 64
28 7 111 200 238 245 266 287 284 277 39 94 190 240 201 164 175 170 143 148 136 134 121 85 75 170 144 113 116 121 132 130 134 126 121 107 92 86 98 109 102 93 82 73 66 52 38 44 51 64 73 73 67 63 60 54 43 37 47 45 47 47 44 42 43 43 44 46 48 51 52 47 52 49 28 32 33 40 59 62 73 73 166 147 94 226 128
73 41 62 27 93 286 58 317 351 20 73 227 215 234 319 169 136 137 131 135 114 117 83 66 103 113 117 123 129 126 132 137 139 142 132 125 122 117 107 92 89 101 91 81 72 66 48 42 44 62 79 76 68 59 54 30 14 54 62 58 54 53 49 43 40 40 40 41 45 42 40 38 45 44 34 36 37 38 45 55 59 52 29 32 197 176 123
135 75 115 164 212 248 288 6 117 282 226 276 187 148 84 345 130 144 134 126 142 115 120 122 113 119 109 101 118 122 130 125 113 101 101 104 102 89 72 90 102 97 94 86 79 64 58 58 58 62 81 82 73 65 45 354 33 53 57 57 59 52 46 42 38 35 33 34 38 38 35 36 45 47 38 40 46 47 53 64 71 66 48 53 55 80 93
111 201 207 248 244 241 276 221 248 248 286 282 203 163 150 154 168 174 132 150 134 129 130 135 138 136 148 148 155 149 149 138 138 136 136 128 119 113 111 102 91 89 99 95 85 65 51 54 54 56 64 80 72 64 22 30 51 65 63 60 55 47 43 36 35 24 30 29 26 26 23 28 38 37 38 40 50 32 44 48 52 53 45 41 51 50 41
263 264 217 276 311 340 335 301 257 280 328 352 26 320 114 205 189 168 149 148 147 141 140 122 79 136 155 138 129 120 123 127 120 120 115 103 104 104 102 97 93 97 92 86 84 77 53 42 50 56 56 67 73 49 20 54 64 77 75 68 59 47 38 32 26 21 37 35 26 21 21 20 31 36 37 27 49 44 40 45 41 44 37 39 40 37 33
85 196 322 21 334 318 339 324 319 313 41 346 351 7 326 259 146 116 135 162 157 148 143 142 152 163 161 132 123 123 126 131 143 145 136 130 134 128 118 120 113 101 98 93 89 84 73 35 53 54 63 58 71 52 48 45 64 77 76 70 65 54 42 32 28 25 29 40 29 24 23 22 28 27 28 36 42 49 47 42 38 38 35 36 31 27 24
82 244 272 286 260 254 290 1 24 346 333 343 15 8 6 348 337 102 137 115 121 159 156 155 143 144 148 144 148 146 143 143 146 148 141 135 121 107 113 113 107 103 102 106 103 96 90 74 66 64 54 53 44 53 48 48 69 74 72 72 67 56 46 38 50 44 35 42 39 28 25 23 23 22 21 22 32 35 37 34 41 33 30 33 31 23 12
282 316 285 268 280 291 13 360 25 314 290 301 18 28 33 27 46 73 101 104 147 151 155 137 138 145 176 163 156 147 144 143 147 151 147 138 133 127 118 116 115 120 122 114 117 112 120 127 92 68 57 43 36 48 48 59 75 74 72 68 69 62 54 50 47 49 48 45 37 32 21 23 15 19 23 7 14 15 17 56 30 33 40 26 26 1 9
319 204 217 150 88 268 303 354 336 339 335 43 68 42 45 43 40 24 135 111 109 127 158 161 160 157 154 150 152 150 151 151 147 149 143 140 136 131 121 118 122 125 128 133 130 126 139 123 85 75 66 56 46 42 49 61 71 78 74 67 62 56 58 62 61 50 43 39 36 36 34 21 19 19 22 24 25 11 359 360 31 37 1 23 358 347 342
273 267 242 186 148 174 228 202 282 283 314 58 63 45 50 85 115 81 97 120 125 144 157 162 157 154 155 154 146 142 152 162 167 161 154 151 153 144 138 126 136 138 148 139 132 126 130 91 77 82 75 61 60 47 57 58 73 77 74 71 60 46 53 56 62 61 46 45 34 31 29 31 25 28 0 358 3 2 341 334 341 347 357 7 80 253 313
245 247 228 174 65 187 176 248 260 300 313 66 69 16 44 149 155 131 113 128 185 190 165 174 177 164 158 159 157 165 165 164 162 168 169 160 154 150 152 151 156 154 153 146 143 147 139 112 113 103 87 67 77 75 75 77 75 74 65 74 64 46 48 51 50 57 50 38 38 27 23 12 19 30 23 7 348 347 352 343 339 341 345 348 350 358 3
342 333 191 182 120 23 293 322 355 309 337 59 66 3 347 3 15 193 141 143 146 167 193 183 190 182 168 172 176 169 169 177 178 170 167 156 154 151 161 162 165 160 159 158 158 147 137 129 114 108 106 87 73 75 77 84 85 80 66 62 60 39 59 58 44 37 35 25 23 25 15 6 2 10 15 19 3 349 341 343 347 342 344 352 353 350 346
237 244 124 136 121 31 323 326 12 25 1 9 23 358 352 2 348 48 76 162 167 159 180 252 223 217 198 181 180 176 162 171 177 167 151 158 160 164 170 174 169 163 161 160 152 143 136 133 132 126 116 120 95 88 82 76 79 86 80 69 42 26 91 81 53 46 33 12 3 357 347 335 341 354 356 354 359 358 1 357 355 351 351 352 350 349 346
20 347 354 22 8 339 8 59 286 310 316 341 50 317 332 335 355 14 38 57 174 205 187 192 194 186 180 226 222 184 177 177 166 164 169 170 175 183 179 167 166 164 160 155 154 154 147 139 132 126 126 128 98 105 99 99 92 86 80 70 51 29 35 54 72 35 15 27 359 339 339 339 336 337 339 348 350 5 13 16 5 3 358 341 339 344 337
41 13 40 138 231 247 284 293 262 290 314 346 336 349 309 359 26 25 359 344 346 4 349 198 167 167 198 211 190 215 216 165 176 176 177 186 188 173 166 167 164 159 156 156 156 152 139 132 130 123 124 147 117 109 102 99 95 95 96 85 72 70 32 17 10 351 347 359 337 322 294 301 324 336 339 339 350 10 13 5 2 359 358 340 319 311 326
356 353 338 329 236 223 258 282 318 353 332 336 334 4 22 24 30 45 324 291 292 342 323 315 257 207 194 187 172 194 193 192 189 184 193 191 172 165 164 160 155 150 150 148 143 136 132 129 129 122 132 152 104 92 93 91 93 95 87 77 80 74 38 356 322 311 326 306 298 299 329 325 324 324 339 350 354 7 2 353 350 352 347 332 323 340 336
317 317 341 3 338 340 46 21 355 343 347 345 351 345 29 55 341 322 293 287 308 260 263 336 356 273 212 191 187 184 193 202 204 204 196 174 165 161 154 143 124 121 128 137 145 144 139 135 132 128 138 156 123 109 91 87 84 83 80 80 71 32 314 339 26 21 342 311 307 342 342 350 7 4 359 4 4 352 344 341 347 343 338 349 350 342 342
307 353 39 38 46 51 83 66 352 351 4 4 27 4 359 41 359 310 298 294 318 256 270 261 261 285 258 217 209 200 196 198 202 191 176 172 167 164 159 154 154 170 170 162 155 146 139 133 128 128 148 134 110 103 92 83 81 65 68 56 35 26 35 35 25 9 346 336 332 348 355 11 9 359 353 346 337 326 324 321 330 339 345 345 340 342 337
8 21 28 27 43 59 45 18 40 14 346 338 26 23 324 319 297 285 284 293 275 246 262 286 272 253 242 228 219 215 202 188 174 161 156 160 175 181 177 176 167 146 139 143 144 140 132 128 126 138 135 118 103 94 96 95 86 77 70 60 42 334 15 19 6 356 338 328 322 337 343 349 340 338 332 318 307 307 317 326 340 347 338 344 340 338 356
55 8 344 330 353 9 349 301 322 313 305 317 285 251 261 242 237 256 260 266 292 284 248 247 248 253 257 247 216 201 206 187 173 158 158 165 167 171 165 135 125 132 136 140 138 137 135 132 135 137 120 109 96 92 97 108 113 116 130 94 64 359 9 360 334 326 315 315 322 319 331 330 328 315 303 306 311 323 328 339 341 341 334 334 345 7 10
157 195 211 204 188 234 264 283 254 263 280 258 254 270 276 270 251 255 264 267 254 266 265 256 249 233 212 195 184 172 147 135 151 182 177 165 159 150 140 130 125 123 120 120 120 119 123 127 128 120 113 103 102 102 104 118 122 133 140 136 103 70 8 325 318 319 328 332 325 325 315 309 308 303 296 289 320 349 351 351 347 340 341 354 0 9 358
228 248 218 232 229 230 227 234 256 255 256 280 291 267 247 256 252 257 261 251 246 240 246 257 258 216 184 180 173 174 176 187 189 169 159 154 145 138 131 117 112 111 107 107 122 126 129 126 117 113 105 102 98 91 86 124 136 133 145 116 79 26 346 318 318 310 314 301 298 297 313 297 296 339 5 13 7 4 1 351 342 344 346 344 348 353 355
238 268 273 269 255 241 241 241 242 243 242 240 248 260 272 269 269 262 252 245 244 254 255 250 243 193 191 193 195 191 195 195 166 156 165 160 149 143 139 137 134 126 120 107 104 118 123 129 131 123 119 111 92 47 319 192 123 134 136 125 32 40 348 327 304 300 293 282 296 341 347 22 32 23 16 14 15 3 344 333 333 336 340 345 349 351 346
232 234 257 260 263 250 239 239 238 234 233 232 234 241 250 258 257 259 258 257 248 240 239 224 185 194 215 210 198 186 176 169 159 153 143 130 137 139 138 134 132 131 129 127 144 139 141 143 132 119 108 92 102 30 297 36 96 68 67 128 34 36 353 309 289 277 288 22 22 24 29 25 26 17 9 8 360 346 334 335 341 344 349 355 352 346 341
295 273 261 258 262 259 252 243 236 233 234 242 237 232 233 243 250 253 256 256 250 235 224 207 209 213 182 144 152 160 157 147 136 132 132 137 140 130 128 128 129 126 129 137 140 124 125 134 124 110 119 110 75 132 332 84 101 88 51 20 13 345 310 310 311 318 359 40 34 55 44 22 18 2 359 348 343 340 350 359 351 348 348 349 347 343 338
320 308 296 281 269 262 264 267 260 247 227 228 235 237 240 239 249 253 258 255 251 231 201 208 184 157 163 158 156 151 151 148 142 140 144 143 143 132 135 141 148 144 133 124 121 120 119 119 115 118 105 108 51 319 8 93 82 75 51 23 339 310 325 343 349 343 6 20 356 6 21 8 4 3 356 349 344 359 10 5 357 350 349 347 345 343 345
303 302 295 297 290 278 268 261 260 254 246 225 220 235 241 242 242 241 248 255 254 220 206 184 173 175 175 171 161 161 159 152 146 145 143 140 132 123 113 92 101 108 121 127 122 118 126 125 114 109 114 108 86 69 94 82 73 55 24 13 336 14 358 4 4 8 17 19 15 9 7 1 0 359 354 356 4 7 4 359 355 350 346 342 347 351 353
287 293 297 296 289 285 274 272 268 259 254 252 237 238 241 241 244 244 241 241 245 219 195 186 187 188 181 177 171 158 150 143 143 143 138 129 126 127 129 137 146 133 133 132 134 132 128 124 136 123 130 118 131 109 98 92 88 52 11 38 90 52 42 29 36 40 33 23 16 11 0 2 358 359 358 4 2 3 355 352 350 350 344 345 349 351 349
292 297 296 296 293 286 279 268 265 275 269 256 256 257 255 247 239 241 245 245 240 208 198 197 197 191 181 160 142 138 138 142 142 143 147 145 146 140 133 142 151 138 145 140 134 128 128 134 132 132 129 101 119 113 106 92 68 68 38 49 71 68 57 53 38 40 36 30 17 6 354 349 2 2 359 2 358 353 349 351 349 346 343 349 352 351 345
305 308 305 302 295 291 281 274 263 254 254 258 255 256 260 263 252 244 244 242 225 205 197 193 196 167 131 142 143 144 145 146 143 138 118 89 110 140 143 146 149 155 141 120 119 116 125 131 138 164 131 117 115 116 108 100 89 87 70 70 78 78 70 57 54 47 31 23 17 13 359 354 11 1 1 359 352 346 347 351 346 345 350 355 352 347 347
297 297 295 299 308 309 303 288 270 258 257 259 252 250 256 255 249 242 237 228 211 196 182 172 161 150 151 149 147 145 148 147 141 132 120 109 85 60 106 133 139 137 131 123 125 125 135 148 162 164 142 128 127 129 125 117 115 96 98 98 89 85 76 70 51 45 36 27 27 23 7 11 5 6 4 350 344 347 350 349 347 353 355 352 345 346 346
296 295 295 300 306 306 296 291 279 268 259 261 265 264 251 245 235 223 219 211 199 184 176 165 155 151 152 154 151 141 132 125 122 121 125 133 136 143 143 133 131 132 134 136 132 139 148 160 163 146 139 140 139 137 132 138 129 117 99 101 102 98 92 85 68 52 42 48 44 19 10 13 17 9 352 342 343 347 349 351 354 359 353 348 349 348 350
296 298 297 310 312 304 294 291 288 280 272 275 274 275 263 243 228 214 204 193 182 171 147 137 133 133 128 121 117 123 126 128 145 162 159 160 159 153 151 136 130 136 144 143 136 144 167 169 156 147 145 145 141 135 147 145 126 118 119 113 114 121 113 107 85 61 64 58 41 20 15 19 48 20 356 349 345 348 349 358 1 356 352 351 350 350 348
299 307 313 308 306 308 309 306 318 326 319 302 291 286 279 238 209 196 178 155 141 129 121 116 113 112 111 112 119 125 126 120 95 66 91 85 107 127 147 145 147 148 148 144 153 157 178 159 157 157 153 147 134 124 130 126 136 141 141 143 139 136 145 157 161 174 52 346 25 31 0 18 48 282 352 0 349 344 340 349 354 353 349 348 349 349 345
320 324 324 326 325 319 320 316 320 304 289 299 311 323 343 133 144 128 116 111 113 123 122 122 123 121 121 125 129 120 127 135 134 102 74 117 129 136 137 141 155 159 154 154 154 167 166 160 160 155 156 147 129 129 144 144 153 152 147 158 146 161 150 180 190 197 203 257 73 153 272 301 307 317 324 347 343 337 322 336 345 344 342 344 343 344 343
339 325 328 334 335 336 342 342 345 353 18 45 60 69 76 72 66 87 103 107 108 102 100 106 113 117 120 122 126 124 136 165 146 148 168 152 151 145 144 157 160 159 150 148 155 169 167 167 163 165 160 143 139 152 139 163 169 176 180 180 180 189 176 194 197 173 185 198 218 259 299 300 314 302 284 309 327 317 327 335 331 331 334 338 336 332 327
354 2 1 357 10 10 2 9 22 27 37 57 61 58 72 89 99 94 97 100 96 90 81 82 90 108 119 130 147 160 152 131 108 124 138 144 143 144 153 155 160 163 159 155 159 170 175 171 170 169 157 146 161 157 159 179 200 192 188 199 192 182 198 204 209 199 200 225 206 239 271 275 251 268 293 302 306 327 328 323 324 325 331 327 318 316 315
35 34 21 29 25 18 14 23 35 49 46 53 56 63 76 84 74 69 72 84 88 92 83 77 62 80 108 122 141 148 148 138 136 140 138 146 148 154 159 158 164 163 161 162 166 172 174 162 164 168 160 166 175 178 177 183 189 204 203 197 202 202 212 225 227 222 207 212 220 234 242 241 248 264 261 263 287 315 317 321 320 321 318 318 318 314 312
79 55 35 46 48 43 36 27 27 43 45 50 45 54 59 69 79 82 80 93 94 102 101 106 112 119 122 136 145 142 154 148 138 140 148 149 156 152 162 162 158 164 162 160 171 176 182 177 182 179 173 175 186 194 200 201 192 202 211 208 211 215 219 224 228 231 228 241 254 255 250 247 252 267 278 285 280 287 298 304 305 311 314 318 319 319 319